Regional Weather Roundup
Issued by NWS

Home | Current Version | Previous Version | Graphics & Text | Print | Product List | Glossary On
Versions: 1 2 3 4 5 6 7 8 9 10 11 12 13 14 15 16 17 18 19 20 21 22 23 24 25 26 27 28 29 30 31 32 33 34 35 36 37 38 39 40 41 42 43 44 45 46 47 48 49 50
582
ASUS45 KSLC 110510
RWRUT

UTAH REGIONAL WEATHER ROUNDUP
NATIONAL WEATHER SERVICE SALT LAKE CITY UT
1000 PM MST SUN DEC 10 2017

UTZ001>011-023>025-110600-

NORTHERN UTAH

CITY           SKY/WX    TMP DP  RH WIND       PRES   REMARKS
BRIGHAM CITY   CLEAR     21  18  86 CALM      30.60S
HILL AFB       CLEAR     26  16  67 E7        30.57S WCI  18
LOGAN          CLOUDY    22  16  78 CALM      30.62R
OGDEN          CLEAR     25  17  72 S5        30.58S WCI  19
SALT LAKE CITY PTCLDY    27  24  89 CALM      30.60R FOG
TOOELE VALLEY  PTCLDY    19  18  93 SE3       30.60R FOG
WENDOVER       PTCLDY    16  12  84 NE3       30.61S
HEBER CITY       N/A     16  10  79 CALM      30.55S
WEST JORDAN    CLEAR     21  19  92 SW6       30.59S WCI  13

$$

UTZ011>015-024>027-110600-

CENTRAL/NORTHEAST UTAH

CITY           SKY/WX    TMP DP  RH WIND       PRES   REMARKS
PROVO AIRPORT  PTCLDY    20  17  88 E3        30.60S
MOAB/CANYONLAN MOCLDY    23   3  42 CALM      30.51S
DELTA          MOCLDY    23  18  80 CALM      30.58S
PRICE          PTCLDY    25  -1  32 CALM      30.50S
ROOSEVELT      CLOUDY    18   7  62 CALM      30.58R
VERNAL         CLOUDY    17   6  62 W7        30.55R WCI   8

$$

UTZ013>016-019>022-027-110600-

SOUTHERN UTAH

CITY           SKY/WX    TMP DP  RH WIND       PRES   REMARKS
BRYCE CANYON   PTCLDY    14 -12  30 W10       30.55R WCI   1
CEDAR CITY     PTCLDY    21   9  59 S3        30.52S
MILFORD        MOCLDY    16   8  71 W3        30.54F
ST GEORGE      PTCLDY    41   4  21 SE10      30.44R
HANKSVILLE     MOCLDY    18   0  45 CALM      30.55F
BLANDING         N/A     23  -1  33 CALM      30.56S

$$

REGIONAL REPORTS     COLORADO/ARIZONA

CITY           SKY/WX    TMP DP  RH WIND       PRES   REMARKS
CRAIG, CO      CLOUDY    10   5  80 S3        30.53F
GRAND JUNCTION CLOUDY    25   2  37 E6        30.53R WCI  18
RIFLE, CO      CLOUDY    20   2  45 SW5       30.56R WCI  13
MONTROSE, CO   CLOUDY    20   0  41 S9        30.54S WCI   9
CORTEZ, CO     CLOUDY    11  -2  56 NE5       30.51R WCI   3
COLORADO CITY    N/A     28  -8  20 NE5       30.47S WCI  23
PAGE, AZ       MOCLDY    34  15  46 CALM      30.49S HAZE
GRAND CANYON   MOCLDY    19  -8  30 NE3       30.48S
KINGMAN, AZ    MOCLDY    38   2  22 SE3       30.35R
FLAGSTAFF, AZ  MOCLDY    29 -12  16 E5        30.48R WCI  24

$$

REGIONAL REPORTS    NEVADA/IDAHO/WYOMING

CITY           SKY/WX    TMP DP  RH WIND       PRES   REMARKS
LAS VEGAS, NV  CLOUDY    51   7  16 SW3       30.33S
ELY, NY        MOCLDY    17  -5  37 S7        30.55R WCI   8
ELKO, NV       MOCLDY    20  16  84 NE7       30.54R WCI  11
POCATELLO, ID  CLOUDY    15  12  88 CALM      30.60S
BURLEY, ID     PTCLDY    19  15  84 CALM      30.58R
FORT BRIDGER,  CLEAR     32   7  34 W15       30.54S WCI  22
EVANSTON, WY   CLOUDY    30  11  45 CALM      30.54S
ROCK SPRINGS,  CLOUDY    34   5  29 SW17      30.49R WCI  23

$$




USA.gov is the U.S. government's official web portal to all federal, state and local government web resources and services.